Waukegan, IL

12:53 AM CST on December 17, 2017 (GMT -0600)
Waukegan Regional

Weather History for KUGN - December, 2012

Change the Weather History Date:

Saturday, December 15, 2012

  Actual Average Record
Temperature  
Mean Temperature 44 °F 27 °F  
Max Temperature 49 °F 34 °F 56 °F (2011)
Min Temperature 38 °F 20 °F -4 °F (2010)
Degree Days  
Heating Degree Days 21 38  
Month to date heating degree days 374 536  
Since 1 July heating degree days 1813 1921  
Cooling Degree Days 0 0  
Month to date cooling degree days 0 0  
Year to date cooling degree days 983 564  
Moisture  
Dew Point 41 °F    
Average Humidity 79    
Maximum Humidity 100    
Minimum Humidity 58    
Precipitation  
Precipitation 0.34 in 0.06 in 0.34 in (2012)
Month to date precipitation 1.19 1.15  
Year to date precipitation 24.60 34.74  
Sea Level Pressure  
Sea Level Pressure 29.69 in    
Wind  
Wind Speed 9 mph (SSE)    
Max Wind Speed 20 mph    
Max Gust Speed 28 mph    
Visibility 5 miles    
Events Rain    
T = Trace of Precipitation, MM = Missing Value Source: NWS Daily Summary

Daily Weather History Graph

Daily Weather History Graph

Search for Another Location

Airport or City:

Trip Planner

Search our weather history database for the weather conditions in past years. The results will help you decide how hot, cold, wet, or windy it might be!

Date:

Astronomy

Dec. 15, 2012 Rise Set
Actual Time 7:14 AM CST 4:19 PM CST
Civil Twilight 6:42 AM CST 4:51 PM CST
Nautical Twilight 6:06 AM CST 5:27 PM CST
Astronomical Twilight 5:32 AM CST 6:01 PM CST
Moon 9:04 AM CST (12/15) 7:25 PM CST (12/15)
Length of Visible Light 10h 09m
Length of Day
9h 05m
Waxing Crescent, 8% of the Moon is Illuminated
Dec 15
Waxing Crescent
Dec 19
First Quarter
Dec 28
Full
Jan 4
Last Quarter
Jan 11
New

Hourly Weather History & Observations

Time (CST) Temp. Windchill Dew Point Humidity Pressure Visibility Wind Dir Wind Speed Gust Speed Precip Events Conditions
12:52 AM 39.0 °F 34.8 °F 35.1 °F 86% 30.01 in 9.0 mi SE 5.8 mph - N/A   Partly Cloudy
1:52 AM 41.0 °F 37.1 °F 34.0 °F 76% 30.01 in 10.0 mi SSE 5.8 mph - N/A   Overcast
2:52 AM 43.0 °F 38.8 °F 30.9 °F 62% 29.98 in 10.0 mi SSE 6.9 mph - N/A   Overcast
3:52 AM 44.1 °F 40.1 °F 30.0 °F 58% 29.98 in 10.0 mi SSE 6.9 mph - N/A   Overcast
4:52 AM 43.0 °F 39.5 °F 33.1 °F 68% 29.97 in 10.0 mi SSE 5.8 mph - N/A   Overcast
5:52 AM 43.0 °F 37.7 °F 33.1 °F 68% 29.93 in 10.0 mi SE 9.2 mph - N/A   Overcast
6:52 AM 43.0 °F 38.2 °F 34.0 °F 71% 29.89 in 10.0 mi SE 8.1 mph - N/A   Mostly Cloudy
7:52 AM 42.1 °F 35.7 °F 36.0 °F 79% 29.87 in 9.0 mi SE 11.5 mph - 0.02 in Rain Light Rain
8:52 AM 42.1 °F 34.2 °F 37.0 °F 82% 29.81 in 6.0 mi ESE 16.1 mph 27.6 mph 0.03 in Rain Light Rain
9:52 AM 43.0 °F 35.4 °F 39.0 °F 86% 29.81 in 7.0 mi SE 16.1 mph 25.3 mph 0.02 in   Overcast
10:39 AM 42.8 °F 35.8 °F 39.2 °F 87% 29.75 in 2.5 mi SE 13.8 mph 23.0 mph 0.04 in Rain Light Rain
10:52 AM 43.0 °F 36.8 °F 39.9 °F 89% 29.75 in 2.5 mi SE 11.5 mph - 0.07 in Rain Rain
11:20 AM 42.8 °F 35.4 °F 41.0 °F 93% 29.71 in 1.8 mi SE 15.0 mph 23.0 mph 0.05 in Rain Light Rain
11:28 AM 42.8 °F 35.1 °F 41.0 °F 93% 29.70 in 2.5 mi SE 16.1 mph 23.0 mph 0.05 in Rain Light Rain
11:36 AM 42.8 °F 34.8 °F 41.0 °F 93% 29.69 in 2.5 mi SE 17.3 mph 25.3 mph 0.05 in Rain Light Rain
11:52 AM 43.0 °F 35.4 °F 42.1 °F 97% 29.70 in 2.5 mi SE 16.1 mph 24.2 mph 0.07 in Rain Light Rain
12:00 PM 42.8 °F 34.8 °F 42.8 °F 100% 29.68 in 1.8 mi SE 17.3 mph 24.2 mph 0.01 in Rain Light Rain
12:52 PM 43.0 °F 36.4 °F 42.1 °F 97% 29.67 in 2.0 mi SSE 12.7 mph 21.9 mph 0.02 in Rain Light Rain
1:07 PM 42.8 °F 36.2 °F 42.8 °F 100% 29.64 in 1.8 mi SSE 12.7 mph - 0.00 in Rain Light Rain
1:43 PM 42.8 °F 37.0 °F 42.8 °F 100% 29.61 in 2.5 mi SE 10.4 mph - 0.03 in Rain Light Rain
1:52 PM 43.0 °F 37.2 °F 43.0 °F 100% 29.62 in 2.5 mi SE 10.4 mph - 0.03 in   Overcast
2:19 PM 44.6 °F 39.2 °F 42.8 °F 93% 29.59 in 3.0 mi SE 10.4 mph - 0.00 in Rain Light Rain
2:34 PM 44.6 °F 39.7 °F 42.8 °F 93% 29.59 in 2.5 mi SE 9.2 mph - 0.00 in Rain Light Rain
2:52 PM 44.1 °F 39.5 °F 43.0 °F 96% 29.60 in 2.0 mi SE 8.1 mph - 0.02 in Rain Light Rain
3:09 PM 44.6 °F 40.7 °F 42.8 °F 93% 29.58 in 1.5 mi SE 6.9 mph - 0.01 in Rain Light Rain
3:47 PM 44.6 °F 40.2 °F 44.6 °F 100% 29.57 in 2.0 mi SSE 8.1 mph - 0.02 in Rain Light Rain
3:52 PM 44.1 °F 39.5 °F 44.1 °F 100% 29.58 in 2.0 mi SSE 8.1 mph - 0.02 in Rain Light Rain
4:52 PM 45.0 °F 40.6 °F 44.1 °F 97% 29.57 in 2.5 mi SE 8.1 mph - 0.03 in Rain Light Rain
5:52 PM 45.0 °F 41.8 °F 45.0 °F 100% 29.57 in 2.5 mi South 5.8 mph - 0.01 in Rain Light Rain
5:59 PM 46.4 °F 42.4 °F 44.6 °F 93% 29.56 in 3.0 mi South 8.1 mph - 0.00 in   Overcast
6:52 PM 48.0 °F - 46.0 °F 93% 29.57 in 6.0 mi South 10.4 mph - 0.00 in   Overcast
7:47 PM 48.2 °F - 46.4 °F 93% 29.56 in 7.0 mi SSW 10.4 mph - N/A   Overcast
7:52 PM 48.0 °F - 46.9 °F 96% 29.57 in 7.0 mi SSW 10.4 mph - N/A   Overcast
8:52 PM 48.9 °F - 46.9 °F 93% 29.58 in 7.0 mi SSW 10.4 mph - N/A   Overcast
9:52 PM 48.0 °F - 46.0 °F 93% 29.57 in 7.0 mi SW 9.2 mph - N/A   Overcast
10:52 PM 46.9 °F - 46.0 °F 97% 29.57 in 5.0 mi SSW 6.9 mph - 0.00 in   Overcast
11:27 PM 46.4 °F 43.5 °F 46.4 °F 100% 29.56 in 6.0 mi SSW 5.8 mph - N/A   Overcast
11:42 PM 48.2 °F - 46.4 °F 93% 29.56 in 6.0 mi SSW 6.9 mph - N/A   Overcast
11:52 PM 46.9 °F - 46.0 °F 97% 29.57 in 6.0 mi SSW 6.9 mph - N/A   Overcast